STARLINK-30083, 56295

Orbit data source: Space-Track

STARLINK-30083, 56295 is a payload satellite owned by SpaceX/Seattle (US) in LEO that was launched on Wed, 19 Apr 2023 UTC via an FALCON 9 launch vehicle from the Air Force Eastern Test Range (AFETR). Payload-class satellites include a variety of spacecraft equipped with specific instruments for various scientific and technological missions. These include communications satellites like Starlink; space stations such as the ISS; scientific satellites like the Hubble; Earth observation satellites from companies like Planet Labs, Umbra, and HawkEye 360; GPS; miniature CubeSats for education and research; and military/defense satellites.

Loading next visibility...
Identifier
56295, 2023-056K
Orbit
LEO
Last TLE update
15 hours ago
Origin
Manufacturer
SpaceX/Seattle
Mission
Operational Commercial Communications
Bus & Motor
STARLINK V2M, Unknown motor
Mass
730 kg wet, ~700 kg dry
Launch date (UTC)
2023-04-19 (2 years ago)
Launch vehicle
FALCON 9
Launch site
Air Force Eastern Test Range (AFETR)
Object type
Payload
Rocket body
Debris
Shape & HBR
Box + 2 Pan, 29 m
Radar Cross Section
33.884 m², Large (>1 m²)

Expand to show TLE details & history

TLE from 15 hours ago
0 STARLINK-30083
1 56295U 23056K   25130.43976177  .00001448  00000-0  12225-3 0  9990
2 56295  43.0030  32.1975 0001171 275.2404  84.8305 15.02530772114118
Epoch: 2025-05-10T10:33Z
Definitive object data (Epoch: 2025-05-10T10:33:15.416Z)
Latitude
-0.00002°
Longitude
5.40172°
Altitude
558.801 km
Speed
7.584 km/s
True Right ascension
02h 08m 47s
True Declination
0° 00' 00"
Sunlit
Object was in daylight at TLE epoch
Visualization TLE readout
Latitude
9.97055°
Longitude
171.17858°
Altitude
558.451 km
Speed
7.585 km/s
Apparent Right ascension
16h 14m 15s
Apparent Declination
-28° 57' 33"
Sunlit
Object is in full shadow
Visualization observer readout
Local Sidereal Time
09:54:40
Azimuth
110.357° ESE
Elevation
-21.589°
Doppler factor
1
Orbital elements
Apogee altitude
561.832 km
Perigee altitude
560.206 km
Semi-major axis
6,939.156 km
Eccentricity
0.0001171
Inclination
43.003°
RAAN
32.1975°
Arg. of periapsis
275.2404°
True anomaly
84.84386°
Mean anomaly
84.8305°
Eccentric anomaly
84.83718°
Mean motion
3.75477 °/min
BSTAR
0.00012225
Orbital period
95.88 mins
Loading maneuver chart data...
Loading SW <> Apogee altitude chart data...
Loading historical data...
Loading historical data...
Loading historical data...
Loading historical data...
Loading historical data...
Loading historical data...
Loading historical data...

STARLINK-30083 Visibility forecast

Observer location: undefined°, undefined°

Span
Click to sort rows by Start time (UTC) header in descending order
Start Az.
Max El. time (UTC)
Max El. Az.
Max El.
End time (UTC)
End Az.
6 mins2025-05-11 03:01:45.015Z262.898° W2025-05-11 03:04:45.015Z204.521° SW23.305°2025-05-11 03:07:45.015Z158.421° S
5 mins2025-05-11 20:16:45.015Z200.151° SSW2025-05-11 20:18:45.015Z147.377° SSE31.192°2025-05-11 20:21:45.015Z86.957° E
6 mins2025-05-11 21:56:45.015Z264.743° W2025-05-11 21:58:45.015Z295.828° NW41.962°2025-05-11 22:02:45.015Z70.355° E
6 mins2025-05-11 23:37:45.015Z292.876° NW2025-05-11 23:39:45.015Z337.502° N38.8°2025-05-11 23:43:45.015Z82.111° E
6 mins2025-05-12 01:18:45.015Z282.29° WNW2025-05-12 01:20:45.015Z233.34° WSW43.405°2025-05-12 01:24:45.015Z118.351° SE
|